Home > Weather > Minamisōma > Past weeks

Flag for Japan Past Weather in Minamisōma, Japan — Yesterday and Last 2 Weeks

Now
64 °F

Partly cloudy.


Feels Like: 64 °F
Forecast: 61 / 81 °F
Wind: 2 mph from North

Location: Sendai Airport

Current Time: May 26, 2016 at 12:09:27 AM

Latest Report: May 25, 2016 at 9:00 PM


Visibility: 5 mi

Pressure: 29.89 "Hg

Humidity: 94%

Dew Point: 63 °F

Location of MinamisōmaLocation

Past Weather in Minamisōma — Graph

°F

Minamisōma Temperature Yesterday

Maximum temperature yesterday: 70 °F (at 3:00 PM)
Minimum temperature yesterday: 63 °F (at 6:00 AM)
Average temperature yesterday: 67 °F

High & Low Weather Summary for the Past Weeks

 TemperatureHumidityPressure
High82 °F (May 23, 1:00 PM)100% (May 11, 11:00 AM)30.33 "Hg (May 11, 11:00 AM)
Low50 °F (May 15, 6:00 AM)25% (May 23, 1:00 PM)29.47 "Hg (May 11, 10:48 AM)
Average63 °F71%30.00 "Hg
* Reported May 10 9:00 PM — May 25 9:00 PM, Minamisōma, Weather by CustomWeather, © 2016

Note: Actual official high and low records may vary slightly from our data, if they occured in-between our weather recording intervals... More about our weather records

Advertising

Minamisōma Weather History for the Previous 24 Hours

Scroll right to see more
 ConditionsComfort  
Time TempWeatherWind HumidityBarometerVisibility
9:00 PM
Wed, May 25
64 °FPartly cloudy.2 mph94%29.89 "Hg5 mi
8:00 PM66 °FPassing clouds.1 mph88%29.89 "Hg5 mi
7:00 PM66 °FSprinkles. Partly cloudy.3 mph83%29.86 "Hg5 mi
6:00 PM68 °FBroken clouds.3 mph73%29.89 "Hg5 mi
5:00 PM70 °FPartly sunny.2 mph64%29.86 "Hg5 mi
4:00 PM70 °FPartly sunny.5 mph64%29.86 "HgN/A
3:00 PM70 °FSprinkles. Broken clouds.3 mph64%29.86 "HgN/A
2:00 PM68 °FPartly sunny.6 mph69%29.86 "HgN/A
1:00 PM68 °FPartly sunny.6 mph69%29.86 "HgN/A
12:00 PM68 °FPartly sunny.6 mph73%29.89 "HgN/A
11:00 AM66 °FBroken clouds.6 mph78%29.89 "HgN/A
10:00 AM66 °FBroken clouds.8 mph83%29.86 "Hg4 mi
9:00 AM66 °FFog.6 mph88%29.89 "Hg3 mi
8:00 AM64 °FLight rain. Fog.5 mph88%29.89 "Hg3 mi
7:00 AM64 °FLight rain. Fog.1 mph88%29.89 "Hg2 mi
6:00 AM63 °FFog.2 mph94%29.86 "Hg2 mi
Weather by CustomWeather, © 2016

See weather overviewHow to use our weather pages